Time,TemperatureF,DewpointF,PressureIn,WindDirection,WindDirectionDegrees,WindSpeedMPH,WindSpeedGustMPH,Humidity,HourlyPrecipIn,Conditions,Clouds,dailyrainin,SoftwareType,DateUTC
2013-03-26 00:00:00,32.2,23.8,30.11,North,5,3.0,4.0,71,0.00,,,0.00,Wunderground v.1.15,2013-03-26 05:00:00,
2013-03-26 00:10:00,32.1,23.8,30.12,North,5,3.0,4.0,71,0.00,,,0.00,Wunderground v.1.15,2013-03-26 05:10:00,
2013-03-26 00:15:00,32.1,23.8,30.12,NNW,333,4.0,4.0,71,0.00,,,0.00,Wunderground v.1.15,2013-03-26 05:15:00,
2013-03-26 00:20:00,32.1,23.8,30.12,North,360,4.0,4.0,71,0.00,,,0.00,Wunderground v.1.15,2013-03-26 05:20:00,
2013-03-26 00:25:00,32.0,23.7,30.12,North,355,3.0,4.0,71,0.00,,,0.00,Wunderground v.1.15,2013-03-26 05:25:00,
2013-03-26 00:30:00,32.0,25.3,30.12,NNE,15,4.0,6.0,76,0.00,,,0.00,Wunderground v.1.15,2013-03-26 05:30:00,
2013-03-26 00:35:00,32.0,25.3,30.13,North,355,5.0,8.0,76,0.00,,,0.00,Wunderground v.1.15,2013-03-26 05:35:00,
2013-03-26 00:40:00,32.0,25.3,30.13,NNW,329,5.0,5.0,76,0.00,,,0.00,Wunderground v.1.15,2013-03-26 05:40:00,
2013-03-26 00:45:00,32.0,24.0,30.13,NW,321,5.0,5.0,72,0.00,,,0.00,Wunderground v.1.15,2013-03-26 05:45:00,
2013-03-26 00:50:00,32.0,23.7,30.13,North,360,5.0,5.0,71,0.00,,,0.00,Wunderground v.1.15,2013-03-26 05:50:00,
2013-03-26 00:55:00,32.0,25.3,30.13,North,5,6.0,6.0,76,0.00,,,0.00,Wunderground v.1.15,2013-03-26 05:55:00,
2013-03-26 01:00:00,32.0,24.0,30.13,North,9,5.0,5.0,72,0.00,,,0.00,Wunderground v.1.15,2013-03-26 06:00:00,
2013-03-26 01:05:00,31.9,23.9,30.13,North,360,4.0,5.0,72,0.00,,,0.00,Wunderground v.1.15,2013-03-26 06:05:00,
2013-03-26 01:10:00,31.8,23.8,30.13,North,355,4.0,4.0,72,0.00,,,0.00,Wunderground v.1.15,2013-03-26 06:10:00,
2013-03-26 01:15:00,31.7,23.7,30.13,NNE,31,3.0,4.0,72,0.00,,,0.00,Wunderground v.1.15,2013-03-26 06:15:00,
2013-03-26 01:20:00,31.7,23.7,30.13,North,11,3.0,11.0,72,0.00,,,0.00,Wunderground v.1.15,2013-03-26 06:20:00,
2013-03-26 01:25:00,31.7,24.0,30.13,North,5,5.0,11.0,73,0.00,,,0.00,Wunderground v.1.15,2013-03-26 06:25:00,
2013-03-26 01:30:00,31.6,23.9,30.13,NNW,339,5.0,6.0,73,0.00,,,0.00,Wunderground v.1.15,2013-03-26 06:30:00,
2013-03-26 01:35:00,31.6,23.9,30.14,North,5,4.0,6.0,73,0.00,,,0.00,Wunderground v.1.15,2013-03-26 06:35:00,
2013-03-26 01:40:00,31.5,23.8,30.14,NNE,15,4.0,5.0,73,0.00,,,0.00,Wunderground v.1.15,2013-03-26 06:40:00,
2013-03-26 01:45:00,31.4,23.7,30.14,North,355,4.0,5.0,73,0.00,,,0.00,Wunderground v.1.15,2013-03-26 06:45:00,
2013-03-26 01:50:00,31.4,23.7,30.14,NNW,341,4.0,4.0,73,0.00,,,0.00,Wunderground v.1.15,2013-03-26 06:50:00,
2013-03-26 01:55:00,31.3,23.6,30.14,North,5,4.0,4.0,73,0.00,,,0.00,Wunderground v.1.15,2013-03-26 06:55:00,
2013-03-26 02:00:00,31.2,23.9,30.14,North,355,4.0,4.0,74,0.00,,,0.00,Wunderground v.1.15,2013-03-26 07:00:00,
2013-03-26 02:05:00,31.2,23.9,30.14,North,355,4.0,4.0,74,0.00,,,0.00,Wunderground v.1.15,2013-03-26 07:05:00,
2013-03-26 02:10:00,31.2,23.9,30.14,NNW,346,4.0,6.0,74,0.00,,,0.00,Wunderground v.1.15,2013-03-26 07:10:00,
2013-03-26 02:15:00,31.1,23.8,30.14,NNE,12,4.0,6.0,74,0.00,,,0.00,Wunderground v.1.15,2013-03-26 07:15:00,
2013-03-26 02:25:00,31.0,23.7,30.14,North,351,2.0,2.0,74,0.00,,,0.00,Wunderground v.1.15,2013-03-26 07:25:00,
2013-03-26 02:30:00,31.0,23.7,30.14,NNW,346,2.0,4.0,74,0.00,,,0.00,Wunderground v.1.15,2013-03-26 07:30:00,
2013-03-26 02:35:00,30.9,23.9,30.14,North,5,3.0,5.0,75,0.00,,,0.00,Wunderground v.1.15,2013-03-26 07:35:00,
2013-03-26 02:40:00,30.9,23.9,30.14,North,355,3.0,5.0,75,0.00,,,0.00,Wunderground v.1.15,2013-03-26 07:40:00,
2013-03-26 02:45:00,30.8,23.5,30.14,North,5,3.0,5.0,74,0.00,,,0.00,Wunderground v.1.15,2013-03-26 07:45:00,
2013-03-26 02:50:00,30.8,23.5,30.14,NNW,346,3.0,3.0,74,0.00,,,0.00,Wunderground v.1.15,2013-03-26 07:50:00,
2013-03-26 02:55:00,30.8,23.8,30.14,NNE,12,2.0,4.0,75,0.00,,,0.00,Wunderground v.1.15,2013-03-26 07:55:00,
2013-03-26 03:00:00,30.7,23.4,30.14,North,355,2.0,4.0,74,0.00,,,0.00,Wunderground v.1.15,2013-03-26 08:00:00,
2013-03-26 04:30:00,29.7,22.7,30.15,North,360,1.0,5.0,75,0.00,,,0.00,Wunderground v.1.15,2013-03-26 09:30:00,
2013-03-26 04:35:00,29.7,23.1,30.16,NNW,344,1.0,5.0,76,0.00,,,0.00,Wunderground v.1.15,2013-03-26 09:35:00,
2013-03-26 04:40:00,29.7,23.1,30.16,NNW,342,1.0,2.0,76,0.00,,,0.00,Wunderground v.1.15,2013-03-26 09:40:00,
2013-03-26 04:45:00,29.6,23.0,30.16,NNW,347,1.0,2.0,76,0.00,,,0.00,Wunderground v.1.15,2013-03-26 09:45:00,
2013-03-26 04:50:00,29.5,22.9,30.16,NNW,346,0.0,1.0,76,0.00,,,0.00,Wunderground v.1.15,2013-03-26 09:50:00,
2013-03-26 05:00:00,29.4,23.1,30.16,NNW,331,0.0,0.0,77,0.00,,,0.00,Wunderground v.1.15,2013-03-26 10:00:00,
2013-03-26 05:05:00,29.4,23.1,30.16,NW,306,1.0,2.0,77,0.00,,,0.00,Wunderground v.1.15,2013-03-26 10:05:00,
2013-03-26 05:10:00,29.4,23.1,30.16,NW,306,1.0,1.0,77,0.00,,,0.00,Wunderground v.1.15,2013-03-26 10:10:00,
2013-03-26 05:15:00,29.3,23.0,30.16,NW,306,0.0,1.0,77,0.00,,,0.00,Wunderground v.1.15,2013-03-26 10:15:00,
2013-03-26 05:20:00,29.3,23.0,30.16,NW,306,0.0,0.0,77,0.00,,,0.00,Wunderground v.1.15,2013-03-26 10:20:00,
2013-03-26 05:25:00,29.3,23.0,30.17,NNW,331,0.0,0.0,77,0.00,,,0.00,Wunderground v.1.15,2013-03-26 10:25:00,
2013-03-26 05:30:00,29.3,23.0,30.16,NNW,336,1.0,2.0,77,0.00,,,0.00,Wunderground v.1.15,2013-03-26 10:30:00,
2013-03-26 05:35:00,29.3,23.0,30.17,North,355,1.0,2.0,77,0.00,,,0.00,Wunderground v.1.15,2013-03-26 10:35:00,
2013-03-26 05:40:00,29.3,23.0,30.17,North,355,1.0,1.0,77,0.00,,,0.00,Wunderground v.1.15,2013-03-26 10:40:00,
2013-03-26 05:45:00,29.3,23.0,30.17,NNW,339,1.0,1.0,77,0.00,,,0.00,Wunderground v.1.15,2013-03-26 10:45:00,
2013-03-26 05:50:00,29.2,23.2,30.17,NNW,336,1.0,1.0,78,0.00,,,0.00,Wunderground v.1.15,2013-03-26 10:50:00,
2013-03-26 05:55:00,29.2,23.2,30.17,North,360,1.0,2.0,78,0.00,,,0.00,Wunderground v.1.15,2013-03-26 10:55:00,
2013-03-26 06:00:00,29.2,23.2,30.18,North,5,1.0,4.0,78,0.00,,,0.00,Wunderground v.1.15,2013-03-26 11:00:00,
2013-03-26 06:05:00,29.2,22.9,30.18,NNW,346,1.0,4.0,77,0.00,,,0.00,Wunderground v.1.15,2013-03-26 11:05:00,
2013-03-26 06:10:00,29.2,23.2,30.18,NW,323,2.0,2.0,78,0.00,,,0.00,Wunderground v.1.15,2013-03-26 11:10:00,
2013-03-26 06:15:00,29.2,23.2,30.18,North,360,2.0,2.0,78,0.00,,,0.00,Wunderground v.1.15,2013-03-26 11:15:00,
2013-03-26 06:20:00,29.2,23.2,30.18,North,351,1.0,1.0,78,0.00,,,0.00,Wunderground v.1.15,2013-03-26 11:20:00,
2013-03-26 06:25:00,29.2,23.2,30.18,North,355,1.0,1.0,78,0.00,,,0.00,Wunderground v.1.15,2013-03-26 11:25:00,
2013-03-26 06:30:00,29.2,23.2,30.18,North,355,1.0,1.0,78,0.00,,,0.00,Wunderground v.1.15,2013-03-26 11:30:00,
2013-03-26 06:35:00,29.1,23.1,30.18,North,5,1.0,1.0,78,0.00,,,0.00,Wunderground v.1.15,2013-03-26 11:35:00,
2013-03-26 06:40:00,29.2,23.2,30.18,North,355,0.0,0.0,78,0.00,,,0.00,Wunderground v.1.15,2013-03-26 11:40:00,
2013-03-26 06:45:00,29.1,23.1,30.18,North,355,0.0,0.0,78,0.00,,,0.00,Wunderground v.1.15,2013-03-26 11:45:00,
2013-03-26 06:50:00,29.1,23.1,30.18,NNW,345,0.0,1.0,78,0.00,,,0.00,Wunderground v.1.15,2013-03-26 11:50:00,
2013-03-26 06:55:00,29.0,23.0,30.18,NNW,346,0.0,1.0,78,0.00,,,0.00,Wunderground v.1.15,2013-03-26 11:55:00,
2013-03-26 07:00:00,29.1,23.1,30.18,NNW,346,0.0,1.0,78,0.00,,,0.00,Wunderground v.1.15,2013-03-26 12:00:00,
2013-03-26 07:05:00,29.0,22.7,30.19,NNW,329,0.0,2.0,77,0.00,,,0.00,Wunderground v.1.15,2013-03-26 12:05:00,
2013-03-26 07:15:00,29.1,22.8,30.19,North,349,1.0,3.0,77,0.00,,,0.00,Wunderground v.1.15,2013-03-26 12:15:00,
2013-03-26 07:20:00,29.1,22.5,30.19,NNW,335,1.0,4.0,76,0.00,,,0.00,Wunderground v.1.15,2013-03-26 12:20:00,
2013-03-26 07:25:00,29.2,22.3,30.20,North,355,2.0,4.0,75,0.00,,,0.00,Wunderground v.1.15,2013-03-26 12:25:00,
2013-03-26 07:30:00,29.3,22.7,30.20,North,360,1.0,1.0,76,0.00,,,0.00,Wunderground v.1.15,2013-03-26 12:30:00,
2013-03-26 07:35:00,29.3,22.7,30.20,North,360,1.0,6.0,76,0.00,,,0.00,Wunderground v.1.15,2013-03-26 12:35:00,
2013-03-26 07:40:00,29.4,22.5,30.20,NNW,339,2.0,2.0,75,0.00,,,0.00,Wunderground v.1.15,2013-03-26 12:40:00,
2013-03-26 07:45:00,29.5,22.2,30.20,North,5,3.0,3.0,74,0.00,,,0.00,Wunderground v.1.15,2013-03-26 12:45:00,
2013-03-26 07:50:00,29.6,22.3,30.20,NNW,347,3.0,6.0,74,0.00,,,0.00,Wunderground v.1.15,2013-03-26 12:50:00,
2013-03-26 07:55:00,29.7,22.4,30.20,NNW,347,3.0,6.0,74,0.00,,,0.00,Wunderground v.1.15,2013-03-26 12:55:00,
2013-03-26 08:00:00,29.8,22.5,30.20,North,11,2.0,4.0,74,0.00,,,0.00,Wunderground v.1.15,2013-03-26 13:00:00,
2013-03-26 08:05:00,29.9,22.3,30.20,North,355,3.0,4.0,73,0.00,,,0.00,Wunderground v.1.15,2013-03-26 13:05:00,
2013-03-26 08:10:00,30.0,22.4,30.20,NNW,342,3.0,8.0,73,0.00,,,0.00,Wunderground v.1.15,2013-03-26 13:10:00,
2013-03-26 08:15:00,30.1,22.5,30.21,North,349,3.0,8.0,73,0.00,,,0.00,Wunderground v.1.15,2013-03-26 13:15:00,
2013-03-26 08:20:00,30.2,22.3,30.21,North,355,3.0,4.0,72,0.00,,,0.00,Wunderground v.1.15,2013-03-26 13:20:00,
2013-03-26 08:25:00,30.3,22.7,30.21,NNE,20,2.0,4.0,73,0.00,,,0.00,Wunderground v.1.15,2013-03-26 13:25:00,
2013-03-26 08:30:00,30.5,22.5,30.21,NNW,341,2.0,4.0,72,0.00,,,0.00,Wunderground v.1.15,2013-03-26 13:30:00,
2013-03-26 08:35:00,30.5,22.2,30.21,North,355,4.0,4.0,71,0.00,,,0.00,Wunderground v.1.15,2013-03-26 13:35:00,
2013-03-26 08:45:00,30.7,22.7,30.21,WNW,298,3.0,4.0,72,0.00,,,0.00,Wunderground v.1.15,2013-03-26 13:45:00,
2013-03-26 08:49:00,30.9,22.9,30.21,NNW,340,2.0,2.0,72,0.00,,,0.00,Wunderground v.1.15,2013-03-26 13:49:00,
2013-03-26 08:55:00,31.1,22.8,30.21,NNE,22,2.0,2.0,71,0.00,,,0.00,Wunderground v.1.15,2013-03-26 13:55:00,
2013-03-26 09:00:00,31.4,23.1,30.21,North,360,2.0,4.0,71,0.00,,,0.00,Wunderground v.1.15,2013-03-26 14:00:00,
2013-03-26 09:10:00,31.8,23.1,30.21,NNW,342,2.0,3.0,70,0.00,,,0.00,Wunderground v.1.15,2013-03-26 14:10:00,
2013-03-26 09:14:00,32.0,23.0,30.22,NNW,330,3.0,4.0,69,0.00,,,0.00,Wunderground v.1.15,2013-03-26 14:14:00,
2013-03-26 09:20:00,32.0,23.0,30.21,NNW,336,4.0,5.0,69,0.00,,,0.00,Wunderground v.1.15,2013-03-26 14:20:00,
2013-03-26 09:25:00,32.2,23.2,30.21,North,350,3.0,5.0,69,0.00,,,0.00,Wunderground v.1.15,2013-03-26 14:25:00,
2013-03-26 09:30:00,32.5,23.1,30.21,North,5,2.0,4.0,68,0.00,,,0.00,Wunderground v.1.15,2013-03-26 14:30:00,
2013-03-26 09:35:00,32.8,23.4,30.22,WNW,294,2.0,4.0,68,0.00,,,0.00,Wunderground v.1.15,2013-03-26 14:35:00,
2013-03-26 09:40:00,33.0,22.9,30.22,NNW,337,2.0,2.0,66,0.00,,,0.00,Wunderground v.1.15,2013-03-26 14:40:00,
2013-03-26 09:45:00,33.3,23.2,30.22,NW,316,2.0,4.0,66,0.00,,,0.00,Wunderground v.1.15,2013-03-26 14:45:00,
2013-03-26 09:50:00,33.4,23.3,30.22,West,275,2.0,2.0,66,0.00,,,0.00,Wunderground v.1.15,2013-03-26 14:50:00,
2013-03-26 09:55:00,33.7,23.5,30.22,WNW,298,2.0,2.0,66,0.00,,,0.00,Wunderground v.1.15,2013-03-26 14:55:00,
2013-03-26 10:00:00,34.3,24.1,30.22,WNW,300,1.0,1.0,66,0.00,,,0.00,Wunderground v.1.15,2013-03-26 15:00:00,
2013-03-26 10:05:00,34.7,24.5,30.22,NW,311,1.0,1.0,66,0.00,,,0.00,Wunderground v.1.15,2013-03-26 15:05:00,
2013-03-26 10:10:00,35.4,24.4,30.22,NW,311,1.0,1.0,64,0.00,,,0.00,Wunderground v.1.15,2013-03-26 15:10:00,
2013-03-26 10:15:00,35.9,24.1,30.23,NNW,336,1.0,1.0,62,0.00,,,0.00,Wunderground v.1.15,2013-03-26 15:15:00,
2013-03-26 10:20:00,36.2,24.0,30.23,NNE,15,3.0,5.0,61,0.00,,,0.00,Wunderground v.1.15,2013-03-26 15:20:00,
2013-03-26 10:25:00,36.4,23.8,30.23,NW,320,3.0,5.0,60,0.00,,,0.00,Wunderground v.1.15,2013-03-26 15:25:00,
2013-03-26 10:30:00,36.6,24.0,30.22,NW,323,3.0,3.0,60,0.00,,,0.00,Wunderground v.1.15,2013-03-26 15:30:00,
2013-03-26 10:35:00,36.8,23.8,30.23,NNE,17,3.0,6.0,59,0.00,,,0.00,Wunderground v.1.15,2013-03-26 15:35:00,
2013-03-26 10:40:00,36.9,24.3,30.23,North,355,4.0,5.0,60,0.00,,,0.00,Wunderground v.1.15,2013-03-26 15:40:00,
2013-03-26 10:45:00,37.2,24.2,30.23,North,355,4.0,5.0,59,0.00,,,0.00,Wunderground v.1.15,2013-03-26 15:45:00,
2013-03-26 10:50:00,37.5,24.1,30.23,North,355,5.0,6.0,58,0.00,,,0.00,Wunderground v.1.15,2013-03-26 15:50:00,
2013-03-26 10:55:00,37.3,24.3,30.23,NNW,335,4.0,6.0,59,0.00,,,0.00,Wunderground v.1.15,2013-03-26 15:55:00,
2013-03-26 11:00:00,37.5,24.5,30.23,NW,314,2.0,2.0,59,0.00,,,0.00,Wunderground v.1.15,2013-03-26 16:00:00,
2013-03-26 11:05:00,37.7,24.6,30.23,WNW,284,2.0,2.0,59,0.00,,,0.00,Wunderground v.1.15,2013-03-26 16:05:00,
2013-03-26 11:10:00,38.0,24.5,30.23,NNE,16,2.0,3.0,58,0.00,,,0.00,Wunderground v.1.15,2013-03-26 16:10:00,
2013-03-26 11:15:00,38.1,24.6,30.23,NW,326,3.0,3.0,58,0.00,,,0.00,Wunderground v.1.15,2013-03-26 16:15:00,
2013-03-26 11:20:00,38.4,24.9,30.23,WSW,254,2.0,2.0,58,0.00,,,0.00,Wunderground v.1.15,2013-03-26 16:20:00,
2013-03-26 11:25:00,38.9,24.9,30.23,WSW,252,2.0,2.0,57,0.00,,,0.00,Wunderground v.1.15,2013-03-26 16:25:00,
2013-03-26 11:30:00,39.2,25.2,30.23,NW,306,2.0,2.0,57,0.00,,,0.00,Wunderground v.1.15,2013-03-26 16:30:00,
2013-03-26 11:35:00,39.2,24.4,30.23,NW,318,3.0,4.0,55,0.00,,,0.00,Wunderground v.1.15,2013-03-26 16:35:00,
2013-03-26 11:40:00,39.1,24.3,30.22,NNW,333,4.0,9.0,55,0.00,,,0.00,Wunderground v.1.15,2013-03-26 16:40:00,
2013-03-26 11:45:00,38.8,24.0,30.23,NNW,342,5.0,9.0,55,0.00,,,0.00,Wunderground v.1.15,2013-03-26 16:45:00,
2013-03-26 11:50:00,38.9,24.9,30.22,North,355,5.0,6.0,57,0.00,,,0.00,Wunderground v.1.15,2013-03-26 16:50:00,
2013-03-26 11:55:00,39.1,25.1,30.22,NNW,339,3.0,6.0,57,0.00,,,0.00,Wunderground v.1.15,2013-03-26 16:55:00,
2013-03-26 12:00:00,39.6,25.2,30.22,NW,307,3.0,4.0,56,0.00,,,0.00,Wunderground v.1.15,2013-03-26 17:00:00,
2013-03-26 12:05:00,40.0,26.0,30.22,North,355,2.0,4.0,57,0.00,,,0.00,Wunderground v.1.15,2013-03-26 17:05:00,
2013-03-26 12:10:00,40.5,25.6,30.22,NW,311,4.0,4.0,55,0.00,,,0.00,Wunderground v.1.15,2013-03-26 17:10:00,
2013-03-26 12:15:00,40.6,25.7,30.22,North,350,6.0,6.0,55,0.00,,,0.00,Wunderground v.1.15,2013-03-26 17:15:00,
2013-03-26 12:20:00,41.0,26.1,30.22,NNW,341,5.0,5.0,55,0.00,,,0.00,Wunderground v.1.15,2013-03-26 17:20:00,
2013-03-26 12:25:00,41.0,26.1,30.22,NNW,334,4.0,5.0,55,0.00,,,0.00,Wunderground v.1.15,2013-03-26 17:25:00,
2013-03-26 12:30:00,40.8,25.9,30.22,NNE,25,4.0,4.0,55,0.00,,,0.00,Wunderground v.1.15,2013-03-26 17:30:00,
2013-03-26 12:35:00,40.4,25.5,30.22,North,355,5.0,5.0,55,0.00,,,0.00,Wunderground v.1.15,2013-03-26 17:35:00,
2013-03-26 12:40:00,40.4,26.4,30.22,NNW,333,6.0,6.0,57,0.00,,,0.00,Wunderground v.1.15,2013-03-26 17:40:00,
2013-03-26 12:45:00,41.0,26.9,30.22,WNW,302,5.0,9.0,57,0.00,,,0.00,Wunderground v.1.15,2013-03-26 17:45:00,
2013-03-26 12:50:00,41.4,26.9,30.22,NNW,328,4.0,6.0,56,0.00,,,0.00,Wunderground v.1.15,2013-03-26 17:50:00,
2013-03-26 13:00:00,41.8,26.4,30.22,NNW,331,4.0,4.0,54,0.00,,,0.00,Wunderground v.1.15,2013-03-26 18:00:00,
2013-03-26 13:05:00,41.6,26.6,30.22,NNW,328,4.0,4.0,55,0.00,,,0.00,Wunderground v.1.15,2013-03-26 18:05:00,
2013-03-26 13:10:00,41.5,27.0,30.22,NNE,13,3.0,3.0,56,0.00,,,0.00,Wunderground v.1.15,2013-03-26 18:10:00,
2013-03-26 13:15:00,41.3,27.2,30.22,NW,320,3.0,4.0,57,0.00,,,0.00,Wunderground v.1.15,2013-03-26 18:15:00,
2013-03-26 13:20:00,41.5,27.4,30.22,North,360,3.0,6.0,57,0.00,,,0.00,Wunderground v.1.15,2013-03-26 18:20:00,
2013-03-26 13:25:00,41.5,26.5,30.22,North,5,5.0,6.0,55,0.00,,,0.00,Wunderground v.1.15,2013-03-26 18:25:00,
2013-03-26 13:35:00,41.3,27.2,30.22,NW,304,5.0,6.0,57,0.00,,,0.00,Wunderground v.1.15,2013-03-26 18:35:00,
2013-03-26 13:40:00,41.6,27.5,30.21,NNW,348,4.0,4.0,57,0.00,,,0.00,Wunderground v.1.15,2013-03-26 18:40:00,
2013-03-26 13:45:00,41.8,27.7,30.21,NW,305,4.0,4.0,57,0.00,,,0.00,Wunderground v.1.15,2013-03-26 18:45:00,
2013-03-26 13:50:00,41.8,27.7,30.21,North,355,4.0,4.0,57,0.00,,,0.00,Wunderground v.1.15,2013-03-26 18:50:00,
2013-03-26 13:55:00,41.4,27.3,30.21,North,360,4.0,6.0,57,0.00,,,0.00,Wunderground v.1.15,2013-03-26 18:55:00,
2013-03-26 14:00:00,41.1,27.9,30.21,North,5,5.0,6.0,59,0.00,,,0.00,Wunderground v.1.15,2013-03-26 19:00:00,
2013-03-26 14:05:00,41.0,26.9,30.21,North,5,5.0,7.0,57,0.00,,,0.00,Wunderground v.1.15,2013-03-26 19:05:00,
2013-03-26 14:10:00,40.7,27.9,30.21,North,355,6.0,7.0,60,0.00,,,0.00,Wunderground v.1.15,2013-03-26 19:10:00,
2013-03-26 14:20:00,40.7,27.9,30.21,North,360,7.0,10.0,60,0.00,,,0.00,Wunderground v.1.15,2013-03-26 19:20:00,
2013-03-26 14:25:00,40.9,28.1,30.21,North,10,7.0,10.0,60,0.00,,,0.00,Wunderground v.1.15,2013-03-26 19:25:00,
2013-03-26 14:30:00,41.6,28.7,30.21,NNW,331,5.0,5.0,60,0.00,,,0.00,Wunderground v.1.15,2013-03-26 19:30:00,
2013-03-26 14:35:00,41.6,27.9,30.21,North,5,5.0,5.0,58,0.00,,,0.00,Wunderground v.1.15,2013-03-26 19:35:00,
2013-03-26 14:40:00,41.1,27.4,30.21,NNE,15,6.0,6.0,58,0.00,,,0.00,Wunderground v.1.15,2013-03-26 19:40:00,
2013-03-26 14:45:00,40.5,27.3,30.21,NNE,22,6.0,6.0,59,0.00,,,0.00,Wunderground v.1.15,2013-03-26 19:45:00,
2013-03-26 14:50:00,40.2,27.8,30.21,NE,40,5.0,5.0,61,0.00,,,0.00,Wunderground v.1.15,2013-03-26 19:50:00,
2013-03-26 14:55:00,40.9,28.9,30.21,North,360,4.0,5.0,62,0.00,,,0.00,Wunderground v.1.15,2013-03-26 19:55:00,
2013-03-26 15:00:00,41.4,28.1,30.21,North,5,4.0,7.0,59,0.00,,,0.00,Wunderground v.1.15,2013-03-26 20:00:00,
2013-03-26 15:05:00,41.2,27.1,30.21,North,11,6.0,7.0,57,0.00,,,0.00,Wunderground v.1.15,2013-03-26 20:05:00,
2013-03-26 15:15:00,40.7,27.1,30.21,North,355,5.0,11.0,58,0.00,,,0.00,Wunderground v.1.15,2013-03-26 20:15:00,
2013-03-26 15:20:00,40.6,27.0,30.21,NNW,338,6.0,6.0,58,0.00,,,0.00,Wunderground v.1.15,2013-03-26 20:20:00,
2013-03-26 15:25:00,40.6,27.0,30.21,NE,37,5.0,6.0,58,0.00,,,0.00,Wunderground v.1.15,2013-03-26 20:25:00,
2013-03-26 15:30:00,40.5,26.9,30.21,NW,314,4.0,4.0,58,0.00,,,0.00,Wunderground v.1.15,2013-03-26 20:30:00,
2013-03-26 15:35:00,40.4,26.4,30.21,NNE,16,4.0,4.0,57,0.00,,,0.00,Wunderground v.1.15,2013-03-26 20:35:00,
2013-03-26 15:40:00,40.4,26.8,30.21,NNE,33,4.0,4.0,58,0.00,,,0.00,Wunderground v.1.15,2013-03-26 20:40:00,
2013-03-26 15:45:00,40.4,26.8,30.21,North,350,5.0,8.0,58,0.00,,,0.00,Wunderground v.1.15,2013-03-26 20:45:00,
2013-03-26 15:50:00,40.6,27.0,30.21,WNW,298,4.0,4.0,58,0.00,,,0.00,Wunderground v.1.15,2013-03-26 20:50:00,
2013-03-26 15:55:00,41.0,27.3,30.21,North,350,3.0,4.0,58,0.00,,,0.00,Wunderground v.1.15,2013-03-26 20:55:00,
2013-03-26 16:00:00,40.8,27.2,30.21,NW,326,5.0,5.0,58,0.00,,,0.00,Wunderground v.1.15,2013-03-26 21:00:00,
2013-03-26 16:05:00,40.6,27.4,30.21,North,5,4.0,5.0,59,0.00,,,0.00,Wunderground v.1.15,2013-03-26 21:05:00,
2013-03-26 16:10:00,40.4,26.8,30.21,North,11,4.0,4.0,58,0.00,,,0.00,Wunderground v.1.15,2013-03-26 21:10:00,
2013-03-26 16:15:00,40.3,26.3,30.21,North,360,4.0,4.0,57,0.00,,,0.00,Wunderground v.1.15,2013-03-26 21:15:00,
2013-03-26 16:20:00,40.2,25.7,30.21,NNE,19,4.0,4.0,56,0.00,,,0.00,Wunderground v.1.15,2013-03-26 21:20:00,
2013-03-26 16:25:00,40.1,26.1,30.21,North,360,3.0,4.0,57,0.00,,,0.00,Wunderground v.1.15,2013-03-26 21:25:00,
2013-03-26 16:30:00,40.2,27.0,30.21,North,349,3.0,6.0,59,0.00,,,0.00,Wunderground v.1.15,2013-03-26 21:30:00,
2013-03-26 16:40:00,40.1,26.5,30.21,NW,323,3.0,3.0,58,0.00,,,0.00,Wunderground v.1.15,2013-03-26 21:40:00,
2013-03-26 16:50:00,39.9,26.3,30.22,North,355,3.0,5.0,58,0.00,,,0.00,Wunderground v.1.15,2013-03-26 21:50:00,
2013-03-26 16:55:00,39.7,26.5,30.21,NNW,336,4.0,5.0,59,0.00,,,0.00,Wunderground v.1.15,2013-03-26 21:55:00,
2013-03-26 17:00:00,39.5,25.9,30.21,North,9,3.0,5.0,58,0.00,,,0.00,Wunderground v.1.15,2013-03-26 22:00:00,
2013-03-26 17:05:00,39.3,25.7,30.22,NNE,15,3.0,7.0,58,0.00,,,0.00,Wunderground v.1.15,2013-03-26 22:05:00,
2013-03-26 17:10:00,39.1,25.6,30.22,NNW,347,5.0,6.0,58,0.00,,,0.00,Wunderground v.1.15,2013-03-26 22:10:00,
2013-03-26 17:20:00,38.9,24.9,30.22,North,349,4.0,4.0,57,0.00,,,0.00,Wunderground v.1.15,2013-03-26 22:20:00,
2013-03-26 17:25:00,38.8,24.9,30.22,North,350,3.0,4.0,57,0.00,,,0.00,Wunderground v.1.15,2013-03-26 22:25:00,
2013-03-26 17:30:00,38.8,25.3,30.22,North,355,1.0,3.0,58,0.00,,,0.00,Wunderground v.1.15,2013-03-26 22:30:00,
2013-03-26 17:35:00,38.8,24.9,30.22,North,349,1.0,3.0,57,0.00,,,0.00,Wunderground v.1.15,2013-03-26 22:35:00,
2013-03-26 17:40:00,38.7,25.2,30.22,North,355,2.0,7.0,58,0.00,,,0.00,Wunderground v.1.15,2013-03-26 22:40:00,
2013-03-26 17:45:00,38.6,24.7,30.22,NW,324,1.0,7.0,57,0.00,,,0.00,Wunderground v.1.15,2013-03-26 22:45:00,
2013-03-26 17:49:00,38.6,25.1,30.22,North,5,1.0,3.0,58,0.00,,,0.00,Wunderground v.1.15,2013-03-26 22:49:00,
2013-03-26 17:55:00,38.5,25.0,30.22,North,355,2.0,3.0,58,0.00,,,0.00,Wunderground v.1.15,2013-03-26 22:55:00,
2013-03-26 18:00:00,38.5,25.0,30.22,North,355,2.0,2.0,58,0.00,,,0.00,Wunderground v.1.15,2013-03-26 23:00:00,
2013-03-26 18:10:00,38.3,25.2,30.22,WNW,299,2.0,5.0,59,0.00,,,0.00,Wunderground v.1.15,2013-03-26 23:10:00,
2013-03-26 18:15:00,38.1,24.6,30.22,North,355,2.0,5.0,58,0.00,,,0.00,Wunderground v.1.15,2013-03-26 23:15:00,
2013-03-26 18:20:00,38.0,24.9,30.23,NW,319,2.0,2.0,59,0.00,,,0.00,Wunderground v.1.15,2013-03-26 23:20:00,
2013-03-26 18:25:00,37.8,25.1,30.23,NNW,328,1.0,2.0,60,0.00,,,0.00,Wunderground v.1.15,2013-03-26 23:25:00,
2013-03-26 18:30:00,37.7,24.6,30.23,NNW,348,2.0,2.0,59,0.00,,,0.00,Wunderground v.1.15,2013-03-26 23:30:00,
2013-03-26 18:35:00,37.6,24.6,30.23,WNW,302,1.0,2.0,59,0.00,,,0.00,Wunderground v.1.15,2013-03-26 23:35:00,
2013-03-26 18:40:00,37.5,24.9,30.23,NNW,334,1.0,1.0,60,0.00,,,0.00,Wunderground v.1.15,2013-03-26 23:40:00,
2013-03-26 18:45:00,37.3,24.3,30.23,NNW,328,3.0,5.0,59,0.00,,,0.00,Wunderground v.1.15,2013-03-26 23:45:00,
2013-03-26 18:50:00,37.1,24.5,30.23,North,5,3.0,3.0,60,0.00,,,0.00,Wunderground v.1.15,2013-03-26 23:50:00,
2013-03-26 18:55:00,37.0,24.4,30.24,North,360,3.0,3.0,60,0.00,,,0.00,Wunderground v.1.15,2013-03-26 23:55:00,
2013-03-26 19:00:00,36.9,24.3,30.24,North,355,3.0,3.0,60,0.00,,,0.00,Wunderground v.1.15,2013-03-27 00:00:00,
2013-03-26 19:05:00,36.8,24.6,30.24,NNW,346,2.0,3.0,61,0.00,,,0.00,Wunderground v.1.15,2013-03-27 00:05:00,
2013-03-26 19:10:00,36.6,24.4,30.24,NNW,333,2.0,2.0,61,0.00,,,0.00,Wunderground v.1.15,2013-03-27 00:10:00,
2013-03-26 19:15:00,36.5,24.3,30.24,North,5,1.0,2.0,61,0.00,,,0.00,Wunderground v.1.15,2013-03-27 00:15:00,
2013-03-26 19:20:00,36.4,24.2,30.24,NW,315,2.0,2.0,61,0.00,,,0.00,Wunderground v.1.15,2013-03-27 00:20:00,
2013-03-26 19:30:00,36.1,24.7,30.24,NW,308,1.0,1.0,63,0.00,,,0.00,Wunderground v.1.15,2013-03-27 00:30:00,
2013-03-26 19:35:00,36.0,24.2,30.24,NNW,340,1.0,1.0,62,0.00,,,0.00,Wunderground v.1.15,2013-03-27 00:35:00,
2013-03-26 19:40:00,35.9,24.5,30.25,NNW,339,0.0,1.0,63,0.00,,,0.00,Wunderground v.1.15,2013-03-27 00:40:00,
2013-03-26 19:45:00,35.8,24.0,30.25,NW,320,1.0,1.0,62,0.00,,,0.00,Wunderground v.1.15,2013-03-27 00:45:00,
2013-03-26 19:50:00,35.7,24.3,30.24,NNW,340,1.0,2.0,63,0.00,,,0.00,Wunderground v.1.15,2013-03-27 00:50:00,
2013-03-26 19:54:00,35.7,24.7,30.24,North,355,1.0,2.0,64,0.00,,,0.00,Wunderground v.1.15,2013-03-27 00:54:00,
2013-03-26 20:00:00,35.6,24.6,30.24,NNW,334,0.0,0.0,64,0.00,,,0.00,Wunderground v.1.15,2013-03-27 01:00:00,
2013-03-26 20:05:00,35.5,24.1,30.24,NNW,336,0.0,1.0,63,0.00,,,0.00,Wunderground v.1.15,2013-03-27 01:05:00,
2013-03-26 20:10:00,35.5,24.5,30.24,North,355,1.0,1.0,64,0.00,,,0.00,Wunderground v.1.15,2013-03-27 01:10:00,
2013-03-26 20:15:00,35.4,24.4,30.25,North,355,1.0,1.0,64,0.00,,,0.00,Wunderground v.1.15,2013-03-27 01:15:00,
2013-03-26 20:20:00,35.3,24.7,30.25,North,355,0.0,0.0,65,0.00,,,0.00,Wunderground v.1.15,2013-03-27 01:20:00,
2013-03-26 20:25:00,35.2,24.6,30.24,North,355,0.0,0.0,65,0.00,,,0.00,Wunderground v.1.15,2013-03-27 01:25:00,
2013-03-26 20:34:00,35.1,24.5,30.25,North,355,0.0,0.0,65,0.00,,,0.00,Wunderground v.1.15,2013-03-27 01:34:00,
2013-03-26 20:39:00,35.0,24.4,30.25,North,355,0.0,0.0,65,0.00,,,0.00,Wunderground v.1.15,2013-03-27 01:39:00,
2013-03-26 20:44:00,34.9,23.9,30.25,North,355,0.0,0.0,64,0.00,,,0.00,Wunderground v.1.15,2013-03-27 01:44:00,
2013-03-26 20:49:00,34.9,24.3,30.25,North,355,0.0,0.0,65,0.00,,,0.00,Wunderground v.1.15,2013-03-27 01:49:00,
2013-03-26 20:54:00,34.8,24.2,30.25,North,355,0.0,0.0,65,0.00,,,0.00,Wunderground v.1.15,2013-03-27 01:54:00,
2013-03-26 21:00:00,34.7,24.1,30.25,North,355,0.0,0.0,65,0.00,,,0.00,Wunderground v.1.15,2013-03-27 02:00:00,
2013-03-26 21:05:00,34.6,24.4,30.25,North,355,0.0,0.0,66,0.00,,,0.00,Wunderground v.1.15,2013-03-27 02:05:00,
2013-03-26 21:10:00,34.4,24.2,30.25,North,355,0.0,0.0,66,0.00,,,0.00,Wunderground v.1.15,2013-03-27 02:10:00,
2013-03-26 21:15:00,34.4,24.2,30.25,North,355,0.0,0.0,66,0.00,,,0.00,Wunderground v.1.15,2013-03-27 02:15:00,
2013-03-26 21:20:00,34.4,23.8,30.25,North,355,0.0,0.0,65,0.00,,,0.00,Wunderground v.1.15,2013-03-27 02:20:00,
2013-03-26 21:25:00,34.4,23.8,30.25,North,355,0.0,0.0,65,0.00,,,0.00,Wunderground v.1.15,2013-03-27 02:25:00,
2013-03-26 21:30:00,34.2,23.7,30.25,North,355,0.0,0.0,65,0.00,,,0.00,Wunderground v.1.15,2013-03-27 02:30:00,
2013-03-26 21:35:00,34.1,23.9,30.25,North,355,0.0,0.0,66,0.00,,,0.00,Wunderground v.1.15,2013-03-27 02:35:00,
2013-03-26 21:40:00,34.0,24.2,30.25,North,355,0.0,0.0,67,0.00,,,0.00,Wunderground v.1.15,2013-03-27 02:40:00,
2013-03-26 21:45:00,33.9,24.1,30.25,North,355,0.0,0.0,67,0.00,,,0.00,Wunderground v.1.15,2013-03-27 02:45:00,
2013-03-26 21:50:00,33.8,24.4,30.25,North,355,0.0,0.0,68,0.00,,,0.00,Wunderground v.1.15,2013-03-27 02:50:00,
2013-03-26 21:55:00,33.7,24.3,30.25,North,355,0.0,0.0,68,0.00,,,0.00,Wunderground v.1.15,2013-03-27 02:55:00,
2013-03-26 22:00:00,33.7,24.3,30.26,North,355,0.0,0.0,68,0.00,,,0.00,Wunderground v.1.15,2013-03-27 03:00:00,
2013-03-26 22:10:00,33.5,24.8,30.26,North,355,0.0,0.0,70,0.00,,,0.00,Wunderground v.1.15,2013-03-27 03:10:00,
2013-03-26 22:15:00,33.4,24.3,30.26,North,355,0.0,1.0,69,0.00,,,0.00,Wunderground v.1.15,2013-03-27 03:15:00,
2013-03-26 22:20:00,33.4,24.3,30.25,North,355,0.0,0.0,69,0.00,,,0.00,Wunderground v.1.15,2013-03-27 03:20:00,
2013-03-26 22:25:00,33.4,24.0,30.25,North,355,0.0,0.0,68,0.00,,,0.00,Wunderground v.1.15,2013-03-27 03:25:00,
2013-03-26 22:30:00,33.5,24.1,30.26,North,355,0.0,0.0,68,0.00,,,0.00,Wunderground v.1.15,2013-03-27 03:30:00,
2013-03-26 22:35:00,33.4,23.6,30.26,North,355,0.0,0.0,67,0.00,,,0.00,Wunderground v.1.15,2013-03-27 03:35:00,
2013-03-26 22:40:00,33.4,23.6,30.26,North,355,0.0,0.0,67,0.00,,,0.00,Wunderground v.1.15,2013-03-27 03:40:00,
2013-03-26 22:45:00,33.4,23.6,30.26,North,355,0.0,0.0,67,0.00,,,0.00,Wunderground v.1.15,2013-03-27 03:45:00,
2013-03-26 22:50:00,33.4,23.6,30.26,North,355,0.0,0.0,67,0.00,,,0.00,Wunderground v.1.15,2013-03-27 03:50:00,
2013-03-26 22:55:00,33.4,23.6,30.26,North,355,0.0,0.0,67,0.00,,,0.00,Wunderground v.1.15,2013-03-27 03:55:00,
2013-03-26 23:00:00,33.3,23.9,30.26,North,355,0.0,0.0,68,0.00,,,0.00,Wunderground v.1.15,2013-03-27 04:00:00,
2013-03-26 23:05:00,33.3,23.5,30.26,North,355,0.0,0.0,67,0.00,,,0.00,Wunderground v.1.15,2013-03-27 04:05:00,
2013-03-26 23:10:00,33.2,23.4,30.26,North,355,0.0,0.0,67,0.00,,,0.00,Wunderground v.1.15,2013-03-27 04:10:00,
2013-03-26 23:15:00,33.1,23.3,30.26,North,355,0.0,0.0,67,0.00,,,0.00,Wunderground v.1.15,2013-03-27 04:15:00,
2013-03-26 23:20:00,33.0,23.2,30.27,North,355,0.0,0.0,67,0.00,,,0.00,Wunderground v.1.15,2013-03-27 04:20:00,
2013-03-26 23:25:00,33.0,23.2,30.26,North,355,0.0,0.0,67,0.00,,,0.00,Wunderground v.1.15,2013-03-27 04:25:00,
2013-03-26 23:30:00,32.9,23.5,30.26,North,355,0.0,0.0,68,0.00,,,0.00,Wunderground v.1.15,2013-03-27 04:30:00,
2013-03-26 23:35:00,32.8,23.0,30.26,North,355,0.0,0.0,67,0.00,,,0.00,Wunderground v.1.15,2013-03-27 04:35:00,
2013-03-26 23:40:00,32.8,23.7,30.26,North,355,0.0,0.0,69,0.00,,,0.00,Wunderground v.1.15,2013-03-27 04:40:00,
2013-03-26 23:45:00,32.7,23.3,30.27,North,355,0.0,0.0,68,0.00,,,0.00,Wunderground v.1.15,2013-03-27 04:45:00,
2013-03-26 23:50:00,32.6,23.2,30.27,North,355,0.0,0.0,68,0.00,,,0.00,Wunderground v.1.15,2013-03-27 04:50:00,
2013-03-26 23:55:00,32.6,23.6,30.27,North,355,0.0,0.0,69,0.00,,,0.00,Wunderground v.1.15,2013-03-27 04:55:00,